Hourly Weather Voznesensk

Today, 10 August, Monday

Time Temperature Precipitation Wind Pressure Humidity
00:00 +24°C° 0 mm 3 mps 759 mmHg 56%
01:00 +24°C° 0 mm 3 mps 759 mmHg 56%
02:00 +24°C° 0 mm 2 mps 759 mmHg 56%
03:00 +24°C° 0 mm 2 mps 759 mmHg 56%
04:00 +24°C° 0 mm 2 mps 759 mmHg 56%
05:00 +24°C° 0 mm 2 mps 759 mmHg 55%
06:00 +25°C° 0 mm 2 mps 759 mmHg 54%
07:00 +25°C° 0 mm 2 mps 759 mmHg 53%
08:00 +26°C° 0 mm 3 mps 759 mmHg 51%
09:00 +26°C° 0 mm 3 mps 759 mmHg 51%
10:00 +27°C° 0 mm 3 mps 759 mmHg 50%
11:00 +28°C° 0 mm 3 mps 759 mmHg 49%
12:00 +28°C° 0 mm 3 mps 759 mmHg 46%
13:00 +29°C° 0 mm 3 mps 759 mmHg 43%
14:00 +29°C° 0 mm 2 mps 759 mmHg 40%
15:00 +29°C° 0 mm 3 mps 758 mmHg 42%
16:00 +29°C° 0 mm 3 mps 758 mmHg 43%
17:00 +28°C° 0 mm 3 mps 758 mmHg 44%
18:00 +27°C° 0 mm 3 mps 758 mmHg 47%
19:00 +26°C° 0 mm 2 mps 758 mmHg 50%
20:00 +25°C° 0 mm 2 mps 758 mmHg 54%
21:00 +25°C° 0 mm 2 mps 759 mmHg 56%
22:00 +24°C° 0 mm 2 mps 759 mmHg 58%
23:00 +23°C° 0 mm 2 mps 759 mmHg 60%

Tomorrow, 11 August, Tuesday

Time Temperature Precipitation Wind Pressure Humidity
00:00 +23°C° 0.1 mm 2 mps 759 mmHg 64%
01:00 +21°C° 0.1 mm 2 mps 759 mmHg 67%
02:00 +20°C° 0.1 mm 2 mps 759 mmHg 71%
03:00 +20°C° 0 mm 2 mps 759 mmHg 73%
04:00 +20°C° 0 mm 2 mps 759 mmHg 74%
05:00 +20°C° 0 mm 2 mps 759 mmHg 76%
06:00 +23°C° 0 mm 2 mps 759 mmHg 70%
07:00 +24°C° 0 mm 2 mps 759 mmHg 63%
08:00 +26°C° 0 mm 3 mps 759 mmHg 56%
09:00 +28°C° 0 mm 3 mps 759 mmHg 51%
10:00 +29°C° 0 mm 3 mps 759 mmHg 45%
11:00 +31°C° 0 mm 3 mps 759 mmHg 39%
12:00 +31°C° 0 mm 3 mps 758 mmHg 38%
13:00 +31°C° 0 mm 3 mps 758 mmHg 37%
14:00 +33°C° 0 mm 3 mps 758 mmHg 36%
15:00 +33°C° 0 mm 3 mps 758 mmHg 36%
16:00 +31°C° 0 mm 3 mps 758 mmHg 37%
17:00 +31°C° 0 mm 3 mps 758 mmHg 38%
18:00 +30°C° 0 mm 3 mps 758 mmHg 42%
19:00 +28°C° 0 mm 3 mps 758 mmHg 47%
20:00 +27°C° 0 mm 3 mps 758 mmHg 51%
21:00 +26°C° 0 mm 2 mps 758 mmHg 54%
22:00 +25°C° 0 mm 2 mps 758 mmHg 58%
23:00 +24°C° 0 mm 2 mps 758 mmHg 61%

Day after tomorrow, 12 August, Wednesday

Time Temperature Precipitation Wind Pressure Humidity
00:00 +24°C° 0 mm 2 mps 758 mmHg 63%
01:00 +23°C° 0 mm 2 mps 758 mmHg 65%
02:00 +23°C° 0 mm 2 mps 758 mmHg 67%
03:00 +21°C° 0.1 mm 2 mps 758 mmHg 70%
04:00 +21°C° 0.1 mm 2 mps 758 mmHg 73%
05:00 +20°C° 0.1 mm 2 mps 758 mmHg 76%
06:00 +21°C° 0.4 mm 3 mps 758 mmHg 75%
07:00 +22°C° 0.4 mm 4 mps 758 mmHg 75%
08:00 +23°C° 0.4 mm 4 mps 758 mmHg 74%
09:00 +25°C° 0 mm 5 mps 758 mmHg 66%
10:00 +27°C° 0 mm 5 mps 759 mmHg 58%
11:00 +28°C° 0 mm 6 mps 759 mmHg 49%
12:00 +29°C° 0 mm 6 mps 759 mmHg 46%
13:00 +29°C° 0 mm 6 mps 759 mmHg 42%
14:00 +30°C° 0 mm 6 mps 758 mmHg 38%
15:00 +29°C° 0 mm 6 mps 759 mmHg 39%
16:00 +28°C° 0 mm 6 mps 759 mmHg 39%
17:00 +27°C° 0 mm 7 mps 759 mmHg 40%
18:00 +26°C° 0 mm 6 mps 759 mmHg 44%
19:00 +23°C° 0 mm 5 mps 760 mmHg 48%
20:00 +21°C° 0 mm 4 mps 760 mmHg 51%
21:00 +20°C° 0 mm 4 mps 761 mmHg 56%
22:00 +19°C° 0 mm 4 mps 761 mmHg 60%
23:00 +18°C° 0 mm 4 mps 761 mmHg 64%

13 August, Thursday

Time Temperature Precipitation Wind Pressure Humidity
00:00 +17°C° 0 mm 3 mps 761 mmHg 67%
01:00 +16°C° 0 mm 3 mps 761 mmHg 70%
02:00 +16°C° 0 mm 3 mps 762 mmHg 73%
03:00 +14°C° 0 mm 3 mps 762 mmHg 75%
04:00 +14°C° 0 mm 3 mps 762 mmHg 77%
05:00 +13°C° 0 mm 3 mps 762 mmHg 79%
06:00 +16°C° 0 mm 3 mps 762 mmHg 72%
07:00 +18°C° 0 mm 4 mps 762 mmHg 64%
08:00 +20°C° 0 mm 4 mps 762 mmHg 57%
09:00 +21°C° 0 mm 4 mps 762 mmHg 51%
10:00 +23°C° 0 mm 4 mps 762 mmHg 45%
11:00 +25°C° 0 mm 4 mps 762 mmHg 39%
12:00 +26°C° 0 mm 4 mps 761 mmHg 37%
13:00 +26°C° 0 mm 4 mps 761 mmHg 35%
14:00 +27°C° 0 mm 4 mps 761 mmHg 33%
15:00 +27°C° 0 mm 4 mps 760 mmHg 33%
16:00 +27°C° 0 mm 5 mps 760 mmHg 34%
17:00 +27°C° 0 mm 5 mps 760 mmHg 34%
18:00 +25°C° 0 mm 4 mps 760 mmHg 40%
19:00 +22°C° 0 mm 4 mps 761 mmHg 45%
20:00 +20°C° 0 mm 3 mps 761 mmHg 51%
21:00 +19°C° 0 mm 3 mps 761 mmHg 53%
22:00 +19°C° 0 mm 2 mps 761 mmHg 56%
23:00 +18°C° 0 mm 2 mps 761 mmHg 58%

14 August, Friday

Time Temperature Precipitation Wind Pressure Humidity
00:00 +17°C° 0 mm 2 mps 761 mmHg 62%
01:00 +17°C° 0 mm 2 mps 762 mmHg 65%
02:00 +16°C° 0 mm 2 mps 762 mmHg 68%
03:00 +16°C° 0 mm 3 mps 762 mmHg 71%
04:00 +14°C° 0 mm 3 mps 762 mmHg 74%
05:00 +14°C° 0 mm 3 mps 762 mmHg 77%
06:00 +16°C° 0 mm 3 mps 762 mmHg 68%
07:00 +18°C° 0 mm 4 mps 762 mmHg 60%
08:00 +19°C° 0 mm 4 mps 762 mmHg 51%
09:00 +21°C° 0 mm 4 mps 762 mmHg 47%
10:00 +22°C° 0 mm 4 mps 762 mmHg 42%
11:00 +23°C° 0 mm 4 mps 762 mmHg 38%
12:00 +25°C° 0 mm 4 mps 762 mmHg 36%
13:00 +25°C° 0 mm 4 mps 761 mmHg 34%
14:00 +26°C° 0 mm 3 mps 761 mmHg 32%
15:00 +26°C° 0 mm 4 mps 761 mmHg 32%
16:00 +26°C° 0 mm 4 mps 761 mmHg 32%
17:00 +26°C° 0 mm 4 mps 760 mmHg 32%
18:00 +23°C° 0 mm 4 mps 761 mmHg 36%
19:00 +21°C° 0 mm 3 mps 761 mmHg 41%
20:00 +19°C° 0 mm 3 mps 761 mmHg 45%
21:00 +19°C° 0 mm 3 mps 761 mmHg 46%
22:00 +18°C° 0 mm 3 mps 762 mmHg 47%
23:00 +17°C° 0 mm 3 mps 762 mmHg 47%

15 August, Saturday

Time Temperature Precipitation Wind Pressure Humidity
00:00 +16°C° 0 mm 2 mps 762 mmHg 49%
01:00 +16°C° 0 mm 2 mps 762 mmHg 50%
02:00 +15°C° 0 mm 2 mps 762 mmHg 51%
03:00 +15°C° 0 mm 2 mps 762 mmHg 54%
04:00 +14°C° 0 mm 2 mps 762 mmHg 56%
05:00 +14°C° 0 mm 2 mps 762 mmHg 58%
06:00 +16°C° 0 mm 2 mps 762 mmHg 53%
07:00 +18°C° 0 mm 2 mps 762 mmHg 48%
08:00 +20°C° 0 mm 2 mps 762 mmHg 43%
09:00 +23°C° 0 mm 2 mps 761 mmHg 39%
10:00 +24°C° 0 mm 2 mps 761 mmHg 35%
11:00 +26°C° 0 mm 2 mps 761 mmHg 31%
12:00 +27°C° 0 mm 2 mps 761 mmHg 29%
13:00 +27°C° 0 mm 2 mps 760 mmHg 27%
14:00 +28°C° 0 mm 2 mps 760 mmHg 25%
15:00 +28°C° 0 mm 2 mps 760 mmHg 24%
16:00 +28°C° 0 mm 2 mps 759 mmHg 24%
17:00 +28°C° 0 mm 2 mps 759 mmHg 24%
18:00 +26°C° 0 mm 2 mps 759 mmHg 28%
19:00 +24°C° 0 mm 2 mps 759 mmHg 32%
20:00 +21°C° 0 mm 2 mps 759 mmHg 35%
21:00 +21°C° 0 mm 2 mps 759 mmHg 38%
22:00 +20°C° 0 mm 2 mps 759 mmHg 40%
23:00 +20°C° 0 mm 1 mps 759 mmHg 42%
Show more